{"data":{"norad_id":53276,"epoch":"2026-05-25T03:22:23.640960Z","epoch_age_seconds":69738,"freshness":"FRESH","line1":"1 53276U 22086AL  26145.14055140 -.00000465  00000+0 -11102-4 0  9994","line2":"2 53276  53.2150 200.9190 0001333  89.7779 270.3366 15.08837655212739","mean_motion":15.08837655,"eccentricity":0.0001333,"inclination_deg":53.215,"raan_deg":200.919,"arg_perigee_deg":89.7779,"mean_anomaly_deg":270.3366,"bstar":-1.1102e-5,"rev_number":21273,"period_min":95.437703004569,"perigee_km":538.82840228895,"apogee_km":540.67271111156,"semimajor_km":6917.8875567003,"source":"CELESTRAK","updated_at":"2026-05-25T13:38:17.367027Z"}}